Total_Precipitation_Accumulation
0.06 0.02 0.00 0.00 0.00 0.00 0.00 0.00 0.00 0.00 0.00 0.00 0.00 0.00 0.00 0.00 0.00 0.00 0.00 0.00 0.00 0.00 0.00 0.00 0.00 0.00 0.00 0.00 0.01 0.00 0.02 0.03 0.00 0.01 0.02 0.02 0.02 0.03 0.04 0.04 0.04 0.06 0.14 0.14 0.13 0.17 0.11 0.01 0.00 0.02 0.00 0.00 0.00 0.00
0.03 0.01 0.00 0.00 0.00 0.00 0.00 0.00 0.00 0.00 0.00 0.00 0.00 0.00 0.00 0.00 0.00 0.00 0.00 0.00 0.00 0.00 0.00 0.00 0.00 0.00 0.00 0.00 0.00 0.00 0.04 0.03 0.01 0.01 0.01 0.02 0.03 0.05 0.07 0.08 0.03 0.06 0.10 0.10 0.09 0.05 0.04 0.01 0.01 0.02 0.01 0.00 0.00 0.02
0.02 0.00 0.00 0.00 0.00 0.00 0.00 0.00 0.00 0.00 0.00 0.00 0.00 0.00 0.00 0.00 0.00 0.00 0.00 0.00 0.00 0.00 0.00 0.00 0.00 0.00 0.00 0.00 0.00 0.00 0.01 0.02 0.03 0.03 0.02 0.02 0.03 0.04 0.05 0.07 0.07 0.03 0.04 0.06 0.05 0.01 0.04 0.02 0.03 0.05 0.07 0.07 0.05 0.09
0.01 0.00 0.01 0.00 0.00 0.00 0.00 0.00 0.00 0.00 0.00 0.00 0.00 0.00 0.00 0.00 0.00 0.00 0.00 0.00 0.00 0.00 0.02 0.02 0.00 0.00 0.00 0.00 0.00 0.00 0.00 0.00 0.05 0.06 0.04 0.03 0.04 0.03 0.02 0.06 0.18 0.12 0.10 0.13 0.13 0.11 0.11 0.13 0.23 0.22 0.19 0.21 0.23 0.20
0.01 0.01 0.01 0.00 0.00 0.00 0.01 0.00 0.00 0.00 0.00 0.00 0.00 0.00 0.00 0.00 0.00 0.00 0.00 0.00 0.00 0.01 0.03 0.01 0.01 0.00 0.00 0.00 0.00 0.00 0.00 0.00 0.06 0.10 0.06 0.05 0.02 0.02 0.01 0.03 0.18 0.12 0.09 0.15 0.17 0.16 0.22 0.15 0.27 0.34 0.43 0.41 0.48 0.47
0.02 0.02 0.03 0.02 0.01 0.02 0.02 0.00 0.00 0.00 0.00 0.00 0.00 0.00 0.00 0.00 0.00 0.00 0.00 0.00 0.00 0.00 0.00 0.01 0.01 0.01 0.02 0.00 0.00 0.00 0.00 0.00 0.00 0.04 0.06 0.08 0.05 0.07 0.13 0.07 0.10 0.07 0.05 0.13 0.19 0.21 0.22 0.21 0.31 0.42 0.51 0.53 0.63 0.60
0.04 0.09 0.12 0.10 0.08 0.10 0.09 0.04 0.00 0.00 0.00 0.00 0.00 0.00 0.00 0.00 0.00 0.00 0.00 0.00 0.00 0.00 0.00 0.01 0.06 0.06 0.16 0.02 0.00 0.00 0.01 0.02 0.06 0.12 0.11 0.16 0.18 0.19 0.18 0.07 0.07 0.04 0.01 0.04 0.11 0.14 0.16 0.16 0.27 0.36 0.42 0.51 0.62 0.58
0.09 0.11 0.11 0.12 0.12 0.13 0.09 0.05 0.00 0.00 0.00 0.00 0.00 0.00 0.00 0.00 0.00 0.00 0.00 0.00 0.00 0.00 0.00 0.02 0.02 0.06 0.02 0.09 0.14 0.08 0.11 0.24 0.30 0.31 0.33 0.35 0.40 0.35 0.17 0.06 0.06 0.02 0.00 0.00 0.01 0.06 0.13 0.22 0.30 0.36 0.36 0.48 0.55 0.53
0.09 0.09 0.12 0.15 0.17 0.14 0.07 0.01 0.00 0.00 0.00 0.00 0.00 0.00 0.00 0.00 0.00 0.00 0.00 0.00 0.00 0.00 0.01 0.01 0.02 0.05 0.08 0.32 0.35 0.20 0.19 0.28 0.26 0.23 0.20 0.21 0.28 0.16 0.06 0.05 0.04 0.02 0.02 0.02 0.01 0.01 0.02 0.06 0.14 0.21 0.27 0.40 0.44 0.44
0.10 0.13 0.14 0.16 0.13 0.08 0.02 0.00 0.00 0.00 0.00 0.00 0.00 0.00 0.01 0.00 0.00 0.00 0.00 0.00 0.02 0.01 0.03 0.04 0.06 0.16 0.20 0.32 0.34 0.28 0.47 0.30 0.26 0.31 0.37 0.50 0.31 0.15 0.10 0.10 0.06 0.02 0.02 0.01 0.02 0.03 0.01 0.00 0.02 0.04 0.07 0.21 0.41 0.45
0.17 0.17 0.13 0.07 0.04 0.01 0.00 0.00 0.00 0.00 0.00 0.00 0.00 0.02 0.01 0.00 0.00 0.00 0.01 0.03 0.26 0.24 0.20 0.19 0.18 0.16 0.22 0.66 0.43 0.40 0.32 0.21 0.35 0.35 0.49 0.49 0.25 0.22 0.06 0.05 0.04 0.01 0.01 0.01 0.01 0.01 0.00 0.00 0.00 0.00 0.00 0.02 0.16 0.34
0.10 0.03 0.01 0.00 0.00 0.00 0.00 0.00 0.00 0.00 0.00 0.00 0.00 0.00 0.00 0.00 0.03 0.06 0.08 0.09 0.12 0.24 0.19 0.15 0.05 0.06 0.19 0.13 0.22 0.36 0.19 0.25 0.32 0.17 0.41 0.41 0.20 0.04 0.01 0.00 0.01 0.01 0.03 0.02 0.05 0.01 0.01 0.01 0.00 0.00 0.00 0.01 0.00 0.04
0.00 0.00 0.00 0.00 0.00 0.00 0.00 0.00 0.00 0.00 0.00 0.00 0.00 0.02 0.01 0.02 0.05 0.06 0.17 0.23 0.26 0.14 0.10 0.19 0.16 0.20 0.19 0.13 0.37 0.21 0.21 0.23 0.31 0.47 0.23 0.14 0.28 0.08 0.01 0.01 0.02 0.03 0.06 0.12 0.10 0.05 0.09 0.09 0.04 0.02 0.03 0.02 0.01 0.02
0.00 0.00 0.00 0.00 0.00 0.00 0.00 0.00 0.00 0.00 0.00 0.00 0.02 0.03 0.02 0.01 0.02 0.04 0.15 0.25 0.13 0.06 0.16 0.21 0.22 0.20 0.15 0.32 0.37 0.29 0.30 0.17 0.15 0.10 0.11 0.25 0.24 0.11 0.06 0.02 0.04 0.04 0.02 0.09 0.10 0.10 0.11 0.12 0.12 0.08 0.06 0.04 0.03 0.04
0.00 0.00 0.00 0.00 0.00 0.00 0.00 0.00 0.00 0.00 0.00 0.00 0.00 0.01 0.00 0.00 0.04 0.22 0.13 0.09 0.05 0.05 0.12 0.22 0.16 0.15 0.16 0.39 0.14 0.11 0.04 0.05 0.07 0.10 0.18 0.23 0.19 0.12 0.11 0.05 0.04 0.04 0.05 0.05 0.04 0.03 0.03 0.04 0.06 0.12 0.15 0.14 0.11 0.13
0.00 0.00 0.00 0.00 0.00 0.00 0.00 0.00 0.00 0.00 0.00 0.00 0.00 0.00 0.00 0.03 0.14 0.19 0.07 0.09 0.04 0.03 0.10 0.16 0.16 0.12 0.09 0.05 0.08 0.06 0.03 0.03 0.12 0.12 0.12 0.16 0.16 0.12 0.10 0.05 0.03 0.01 0.01 0.03 0.03 0.03 0.03 0.05 0.08 0.10 0.11 0.12 0.13 0.19
0.00 0.00 0.00 0.00 0.00 0.00 0.00 0.00 0.00 0.00 0.00 0.00 0.00 0.00 0.01 0.06 0.26 0.21 0.24 0.06 0.05 0.07 0.16 0.13 0.09 0.07 0.06 0.14 0.15 0.12 0.09 0.13 0.08 0.09 0.08 0.12 0.10 0.13 0.10 0.04 0.05 0.02 0.01 0.02 0.03 0.04 0.05 0.05 0.06 0.08 0.11 0.13 0.14 0.26
0.00 0.00 0.00 0.00 0.00 0.00 0.00 0.00 0.00 0.00 0.00 0.00 0.00 0.01 0.02 0.20 0.39 0.18 0.13 0.05 0.05 0.10 0.14 0.11 0.05 0.18 0.47 0.57 0.39 0.17 0.06 0.01 0.04 0.08 0.08 0.10 0.15 0.18 0.09 0.06 0.03 0.01 0.05 0.13 0.21 0.31 0.37 0.35 0.25 0.19 0.16 0.20 0.24 0.28
0.00 0.00 0.00 0.00 0.00 0.00 0.00 0.00 0.00 0.00 0.00 0.00 0.00 0.01 0.06 0.19 0.18 0.06 0.03 0.02 0.06 0.07 0.07 0.12 0.34 0.62 0.87 0.43 0.12 0.08 0.06 0.03 0.07 0.06 0.09 0.08 0.08 0.08 0.05 0.04 0.04 0.08 0.12 0.16 0.23 0.26 0.42 0.58 0.64 0.72 0.53 0.33 0.28 0.47
0.00 0.00 0.00 0.00 0.00 0.00 0.00 0.00 0.00 0.00 0.00 0.01 0.04 0.14 0.36 0.38 0.18 0.04 0.04 0.10 0.10 0.09 0.12 0.21 0.43 0.58 0.30 0.03 0.03 0.03 0.01 0.00 0.00 0.04 0.03 0.02 0.07 0.06 0.06 0.03 0.03 0.04 0.05 0.07 0.10 0.09 0.05 0.18 0.15 0.27 0.78 0.51 0.22 0.21
0.00 0.00 0.00 0.00 0.00 0.00 0.00 0.00 0.00 0.00 0.00 0.01 0.06 0.16 0.24 0.16 0.11 0.05 0.15 0.09 0.10 0.12 0.13 0.30 0.37 0.12 0.03 0.05 0.01 0.00 0.00 0.00 0.00 0.00 0.01 0.02 0.04 0.01 0.01 0.01 0.03 0.02 0.03 0.09 0.13 0.10 0.07 0.17 0.15 0.38 0.51 0.31 0.24 0.17
0.00 0.00 0.01 0.01 0.01 0.00 0.00 0.00 0.00 0.04 0.00 0.00 0.11 0.20 0.36 0.38 0.29 0.21 0.14 0.16 0.14 0.06 0.09 0.11 0.12 0.12 0.10 0.07 0.01 0.00 0.00 0.00 0.02 0.03 0.03 0.01 0.00 0.00 0.00 0.00 0.00 0.04 0.12 0.24 0.09 0.09 0.28 0.27 0.22 0.35 0.23 0.06 0.06 0.04
0.00 0.00 0.00 0.01 0.05 0.02 0.01 0.00 0.00 0.00 0.02 0.03 0.13 0.55 0.60 0.61 0.40 0.27 0.33 0.16 0.06 0.01 0.01 0.02 0.01 0.04 0.05 0.02 0.00 0.00 0.00 0.01 0.03 0.01 0.00 0.00 0.00 0.00 0.00 0.00 0.01 0.06 0.08 0.08 0.02 0.06 0.24 0.44 0.42 0.20 0.06 0.03 0.01 0.00
0.00 0.00 0.02 0.07 0.04 0.01 0.03 0.05 0.04 0.04 0.12 0.29 0.37 0.35 0.31 0.36 0.52 0.30 0.16 0.03 0.01 0.00 0.00 0.01 0.02 0.01 0.00 0.01 0.01 0.00 0.00 0.00 0.00 0.00 0.00 0.00 0.00 0.00 0.00 0.01 0.00 0.02 0.06 0.03 0.04 0.11 0.22 0.26 0.20 0.16 0.07 0.03 0.02 0.00
0.01 0.01 0.01 0.02 0.01 0.01 0.02 0.07 0.13 0.23 0.40 0.34 0.32 0.43 0.57 0.66 0.36 0.21 0.07 0.01 0.01 0.02 0.02 0.01 0.00 0.00 0.00 0.00 0.00 0.00 0.00 0.00 0.00 0.00 0.00 0.00 0.00 0.00 0.00 0.00 0.00 0.00 0.01 0.00 0.02 0.06 0.14 0.21 0.12 0.10 0.08 0.05 0.03 0.01
0.01 0.00 0.00 0.00 0.00 0.00 0.00 0.01 0.11 0.23 0.28 0.21 0.21 0.30 0.48 0.57 0.68 0.27 0.05 0.02 0.05 0.02 0.00 0.00 0.00 0.00 0.00 0.00 0.00 0.00 0.00 0.00 0.00 0.00 0.00 0.00 0.00 0.00 0.00 0.01 0.00 0.01 0.00 0.01 0.05 0.04 0.05 0.03 0.01 0.00 0.00 0.00 0.02 0.01
0.00 0.00 0.00 0.00 0.00 0.00 0.00 0.00 0.04 0.09 0.15 0.33 0.48 0.29 0.34 0.88 0.57 0.16 0.02 0.03 0.03 0.00 0.00 0.00 0.00 0.00 0.00 0.00 0.00 0.00 0.00 0.00 0.00 0.00 0.00 0.00 0.00 0.00 0.00 0.00 0.00 0.00 0.00 0.00 0.00 0.05 0.09 0.02 0.00 0.00 0.01 0.00 0.01 0.00
0.00 0.00 0.00 0.00 0.00 0.00 0.00 0.01 0.10 0.15 0.29 0.44 0.38 0.39 0.63 0.59 0.32 0.06 0.01 0.01 0.00 0.00 0.00 0.00 0.00 0.00 0.00 0.00 0.00 0.00 0.00 0.00 0.00 0.00 0.00 0.00 0.00 0.00 0.00 0.00 0.00 0.00 0.00 0.00 0.01 0.00 0.00 0.00 0.00 0.00 0.00 0.00 0.00 0.00
0.00 0.00 0.00 0.00 0.00 0.00 0.00 0.03 0.16 0.47 0.99 0.57 0.46 0.85 0.53 0.16 0.08 0.00 0.01 0.01 0.00 0.00 0.00 0.00 0.00 0.00 0.00 0.00 0.00 0.00 0.00 0.00 0.00 0.00 0.00 0.00 0.00 0.00 0.00 0.00 0.00 0.00 0.00 0.00 0.00 0.00 0.00 0.00 0.00 0.00 0.00 0.00 0.00 0.00
0.00 0.00 0.00 0.00 0.00 0.01 0.01 0.05 0.12 0.31 0.60 0.31 0.37 0.32 0.09 0.03 0.00 0.00 0.00 0.00 0.00 0.00 0.00 0.00 0.00 0.00 0.00 0.00 0.00 0.00 0.00 0.00 0.00 0.00 0.00 0.00 0.00 0.00 0.00 0.00 0.00 0.00 0.00 0.00 0.00 0.00 0.00 0.00 0.00 0.00 0.00 0.00 0.00 0.00
0.00 0.00 0.00 0.00 0.01 0.04 0.09 0.09 0.08 0.15 0.57 0.42 0.37 0.39 0.16 0.04 0.02 0.00 0.00 0.00 0.00 0.00 0.00 0.00 0.00 0.00 0.00 0.00 0.00 0.00 0.00 0.00 0.00 0.00 0.00 0.00 0.00 0.00 0.00 0.00 0.00 0.00 0.00 0.00 0.00 0.00 0.00 0.00 0.00 0.00 0.00 0.00 0.00 0.00
0.00 0.00 0.00 0.00 0.03 0.21 0.21 0.13 0.08 0.25 0.73 0.62 0.27 0.05 0.03 0.01 0.01 0.00 0.00 0.00 0.00 0.00 0.00 0.00 0.00 0.00 0.00 0.00 0.00 0.00 0.00 0.00 0.00 0.00 0.00 0.00 0.00 0.00 0.00 0.00 0.00 0.00 0.00 0.00 0.00 0.00 0.00 0.00 0.00 0.00 0.00 0.00 0.00 0.00
0.01 0.00 0.01 0.03 0.06 0.19 0.51 0.34 0.08 0.31 0.50 0.26 0.13 0.01 0.05 0.05 0.07 0.01 0.00 0.00 0.00 0.00 0.00 0.00 0.00 0.00 0.00 0.00 0.00 0.00 0.00 0.00 0.00 0.00 0.00 0.00 0.00 0.00 0.00 0.00 0.00 0.00 0.00 0.00 0.00 0.00 0.00 0.00 0.00 0.00 0.00 0.00 0.00 0.00